Weather History for KPYM - April, 2013

Change the Weather History Date:

Monday, April 1, 2013

  Actual Average (WUND) Record (WUND)
Temperature  
Mean Temperature 47 °F -  
Max Temperature 59 °F - - (-1)
Min Temperature 37 °F - - (-1)
Degree Days  
Heating Degree Days 18    
Moisture  
Dew Point 39 °F    
Average Humidity 73    
Maximum Humidity 93    
Minimum Humidity 33    
Precipitation  
Precipitation 0.28 in - - ()
Sea Level Pressure  
Sea Level Pressure 29.63 in    
Wind  
Wind Speed 12 mph (WSW)    
Max Wind Speed 21 mph    
Max Gust Speed 33 mph    
Visibility 8 miles    
Events Rain    
Averages and records for this station are not official NWS values.
T = Trace of Precipitation, MM = Missing Value Source: NWS Daily Summary

Daily Weather History Graph

Daily Weather History Graph

Search for Another Location

Airport or City:

Trip Planner

Search our weather history database for the weather conditions in past years. The results will help you decide how hot, cold, wet, or windy it might be!

Date:

Astronomy

Apr. 01, 2013 Rise Set
Actual Time 6:25 AM EDT 7:08 PM EDT
Civil Twilight 5:57 AM EDT 7:36 PM EDT
Nautical Twilight 5:23 AM EDT 8:10 PM EDT
Astronomical Twilight 4:49 AM EDT 8:44 PM EDT
Moon 12:17 AM EDT (4/1) 10:04 AM EDT (4/1)
Length of Visible Light 13h 39m
Length of Day
12h 43m
Waning Gibbous, 67% of the Moon is Illuminated
Apr 1
Waning Gibbous
Apr 3
Last Quarter
Apr 10
New
Apr 18
First Quarter
Apr 25
Full

Hourly Weather History & Observations

Time (EDT) Temp. Windchill Dew Point Humidity Pressure Visibility Wind Dir Wind Speed Gust Speed Precip Events Conditions
12:02 AM 46.4 °F 42.4 °F 42.8 °F 87% 29.76 in 4.0 mi SE 8.1 mph - 0.03 in Rain Light Rain
12:52 AM 46.9 °F - 43.0 °F 86% 29.70 in 4.0 mi ESE 10.4 mph 18.4 mph 0.15 in Rain Light Rain
1:13 AM 46.4 °F 40.7 °F 42.8 °F 87% 29.67 in 4.0 mi ESE 12.7 mph 21.9 mph 0.04 in Rain Light Rain
1:52 AM 46.9 °F - 43.0 °F 86% 29.62 in 5.0 mi SSE 9.2 mph 23.0 mph 0.11 in Rain Light Rain
2:41 AM 48.2 °F - 44.6 °F 87% 29.57 in 8.0 mi South 9.2 mph 16.1 mph 0.02 in Rain Light Rain
2:52 AM 48.0 °F - 45.0 °F 89% 29.57 in 8.0 mi South 9.2 mph 17.3 mph 0.02 in   Overcast
3:47 AM 46.4 °F 41.5 °F 44.6 °F 93% 29.55 in 2.0 mi SSW 10.4 mph - N/A   Overcast
3:52 AM 46.9 °F - 44.1 °F 90% 29.55 in 1.8 mi SSW 12.7 mph - N/A   Overcast
4:14 AM 46.4 °F 40.7 °F 44.6 °F 93% 29.56 in 2.5 mi SW 12.7 mph - N/A   Overcast
4:21 AM 46.4 °F 39.8 °F 44.6 °F 93% 29.56 in 4.0 mi SW 16.1 mph 20.7 mph N/A   Overcast
4:52 AM 46.9 °F - 44.1 °F 90% 29.57 in 8.0 mi WSW 12.7 mph 20.7 mph N/A   Overcast
5:14 AM 48.2 °F - 44.6 °F 87% 29.57 in 10.0 mi WSW 15.0 mph - N/A   Overcast
5:52 AM 48.0 °F - 44.1 °F 86% 29.59 in 10.0 mi West 9.2 mph - N/A   Overcast
6:06 AM 48.2 °F - 44.6 °F 87% 29.59 in 10.0 mi West 11.5 mph - N/A   Overcast
6:23 AM 48.2 °F - 42.8 °F 82% 29.59 in 10.0 mi West 13.8 mph 21.9 mph N/A   Overcast
6:52 AM 46.9 °F - 41.0 °F 80% 29.61 in 10.0 mi West 11.5 mph - N/A   Mostly Cloudy
7:00 AM 46.4 °F 41.1 °F 41.0 °F 81% 29.61 in 10.0 mi West 11.5 mph - N/A   Mostly Cloudy
7:52 AM 46.0 °F 41.0 °F 39.9 °F 79% 29.63 in 10.0 mi West 10.4 mph - N/A   Overcast
8:32 AM 46.4 °F 41.5 °F 39.2 °F 76% 29.65 in 10.0 mi West 10.4 mph 19.6 mph N/A   Overcast
8:52 AM 48.0 °F - 39.9 °F 74% 29.65 in 10.0 mi West 10.4 mph - N/A   Mostly Cloudy
9:27 AM 48.2 °F - 39.2 °F 71% 29.64 in 10.0 mi West 15.0 mph 18.4 mph N/A   Scattered Clouds
9:52 AM 50.0 °F - 39.9 °F 68% 29.65 in 10.0 mi West 15.0 mph - N/A   Scattered Clouds
10:52 AM 54.0 °F - 39.9 °F 59% 29.65 in 10.0 mi West 9.2 mph - N/A   Partly Cloudy
11:52 AM 55.9 °F - 39.9 °F 55% 29.64 in 10.0 mi SW 15.0 mph 20.7 mph N/A   Partly Cloudy
12:52 PM 57.0 °F - 43.0 °F 59% 29.62 in 10.0 mi SW 12.7 mph 24.2 mph N/A   Partly Cloudy
1:52 PM 57.0 °F - 41.0 °F 55% 29.60 in 10.0 mi South 10.4 mph 23.0 mph N/A   Clear
2:52 PM 57.9 °F - 41.0 °F 53% 29.58 in 10.0 mi SSW 15.0 mph 28.8 mph N/A   Clear
3:52 PM 55.9 °F - 41.0 °F 57% 29.57 in 10.0 mi SSW 13.8 mph 31.1 mph N/A   Clear
4:52 PM 55.0 °F - 39.9 °F 57% 29.56 in 10.0 mi SSW 19.6 mph 28.8 mph N/A   Clear
5:43 PM 48.2 °F - 42.8 °F 82% 29.61 in 10.0 mi West 17.3 mph 33.4 mph 0.00 in Rain Light Rain
5:52 PM 48.0 °F - 42.1 °F 80% 29.62 in 9.0 mi West 11.5 mph - 0.00 in Rain Light Rain
6:08 PM 48.2 °F - 42.8 °F 82% 29.62 in 10.0 mi West 8.1 mph 19.6 mph 0.00 in Rain Light Rain
6:21 PM 48.2 °F - 42.8 °F 82% 29.63 in 10.0 mi West 9.2 mph 16.1 mph 0.00 in   Overcast
6:52 PM 46.9 °F - 41.0 °F 80% 29.65 in 10.0 mi WNW 12.7 mph 17.3 mph 0.00 in   Overcast
7:21 PM 44.6 °F 37.8 °F 30.2 °F 57% 29.67 in 10.0 mi WNW 15.0 mph 29.9 mph N/A   Overcast
7:52 PM 43.0 °F 34.2 °F 28.9 °F 58% 29.69 in 10.0 mi West 20.7 mph 26.5 mph N/A   Overcast
8:52 PM 42.1 °F 34.9 °F 25.0 °F 51% 29.72 in 10.0 mi WNW 13.8 mph 20.7 mph N/A   Overcast
9:52 PM 39.9 °F 31.8 °F 15.1 °F 36% 29.75 in 10.0 mi WNW 15.0 mph 28.8 mph N/A   Clear
10:52 PM 37.9 °F 28.9 °F 10.9 °F 33% 29.78 in 10.0 mi NW 16.1 mph 21.9 mph N/A   Clear
11:52 PM 37.0 °F 28.9 °F 10.0 °F 33% 29.80 in 10.0 mi WNW 12.7 mph 19.6 mph N/A   Clear